EST,Max TemperatureF,Mean TemperatureF,Min TemperatureF,Max Dew PointF,MeanDew PointF,Min DewpointF,Max Humidity, Mean Humidity, Min Humidity, Max Sea Level PressureIn, Mean Sea Level PressureIn, Min Sea Level PressureIn, Max VisibilityMiles, Mean VisibilityMiles, Min VisibilityMiles, Max Wind SpeedMPH, Mean Wind SpeedMPH, Max Gust SpeedMPH,PrecipitationIn, CloudCover, Events, WindDirDegrees
2011-11-1,56,46,35,37,35,31,92,70,47,30.32,30.29,30.26,10,10,8,14,3,24,0.00,2,,227
2011-11-2,65,51,36,39,36,32,85,62,39,30.31,30.22,30.09,10,10,9,14,6,17,0.00,3,,213
2011-11-3,59,52,44,45,40,35,89,68,47,30.09,30.03,29.97,10,9,3,20,10,25,T,8,Rain,326
2011-11-4,48,41,34,36,30,26,76,61,45,30.39,30.23,30.09,10,10,10,17,9,22,0.00,5,,32
2011-11-5,50,38,26,28,24,19,92,64,36,30.50,30.43,30.36,10,10,10,12,3,15,0.00,1,,131
2011-11-6,61,44,27,26,22,17,81,52,22,30.38,30.31,30.23,10,10,10,17,7,23,0.00,3,,213
2011-11-7,64,55,45,45,38,29,77,61,44,30.26,30.23,30.19,10,10,10,20,10,24,0.00,6,,242
2011-11-8,68,55,42,51,48,41,100,78,55,30.25,30.17,30.11,10,6,0,14,4,15,T,5,Fog-Rain,223
2011-11-9,69,56,42,43,37,32,96,64,31,30.10,29.94,29.75,10,10,8,23,9,30,T,5,Fog-Rain,199
2011-11-10,58,48,37,46,36,30,85,72,58,29.94,29.86,29.75,10,10,10,24,10,32,T,7,Rain,258
2011-11-11,43,37,30,32,29,26,89,71,53,29.94,29.80,29.73,10,10,4,24,12,32,0.04,6,Rain-Snow,269
2011-11-12,56,46,36,33,30,25,76,59,41,29.95,29.91,29.86,10,10,10,25,12,31,0.00,3,,224
2011-11-13,63,56,48,44,35,28,50,42,33,29.94,29.79,29.65,10,10,10,22,11,32,0.00,7,,212
2011-11-14,65,58,50,54,50,44,93,73,52,29.71,29.62,29.54,10,9,2,21,11,29,0.37,7,Rain-Thunderstorm,232
2011-11-15,56,49,42,48,45,40,100,81,61,29.90,29.79,29.64,10,9,6,14,6,20,0.00,6,,247
2011-11-16,56,47,38,48,40,23,93,67,41,29.94,29.84,29.75,10,10,8,17,6,25,T,7,Rain,262
2011-11-17,41,36,30,30,25,14,85,60,34,30.09,29.97,29.91,10,8,1,24,11,29,0.03,7,Snow,265
2011-11-18,42,36,30,26,21,15,69,53,37,30.33,30.24,30.11,10,10,10,23,14,32,0.00,5,,240
2011-11-19,55,48,40,35,22,15,50,38,26,30.17,30.09,29.95,10,10,10,28,14,37,T,6,Rain,216
2011-11-20,62,51,39,50,39,31,76,59,41,30.29,30.05,29.88,10,10,10,30,14,40,T,7,Rain,288
2011-11-21,41,35,28,32,28,24,96,76,55,30.42,30.36,30.31,10,10,7,14,5,17,0.01,5,Snow,57
2011-11-22,37,31,24,36,27,17,96,72,47,30.43,30.18,29.84,10,8,2,16,7,23,0.92,7,Rain,89
2011-11-23,41,36,30,38,34,28,96,91,85,30.13,29.91,29.67,10,7,2,24,11,31,0.68,7,Rain,28
2011-11-24,51,40,28,40,35,27,100,83,66,30.17,30.13,30.09,10,9,5,23,11,29,0.00,2,,248
2011-11-25,62,50,37,39,34,32,82,59,36,30.10,30.05,29.99,10,10,10,23,11,31,0.00,4,,233
2011-11-26,56,49,42,40,35,32,65,54,43,30.14,30.09,30.04,10,10,10,15,7,21,0.00,7,,213
2011-11-27,64,58,51,52,44,36,80,64,47,30.01,29.91,29.85,10,10,10,20,11,28,0.02,8,Rain,207
2011-11-28,57,50,42,53,41,37,96,88,80,30.16,30.05,29.89,10,10,4,18,6,23,0.12,8,Rain,46
2011-11-29,53,48,43,50,46,41,100,96,92,29.96,29.67,29.50,10,5,0,22,7,28,0.22,8,Fog-Rain,32
2011-11-30,46,38,30,42,31,21,92,77,61,30.12,29.70,29.47,10,9,2,26,13,33,0.05,6,Rain-Snow,267